AQI (37)

Current Conditions for Foresthill, CA. Clear skies, Dry   
Visibility: 10 miles
Space WX Alerts: ALERT:  Electron 2MeV Integral Flux exceeded 1000pfu ( Latest Alert ) - Issue Time: 2018 Dec 10 2026 UTC

  Summary / Temperature 

Current Temperature
40.2°F
4.6°C
(24/hr Ago)
41.9°F
(Apparent temp)
36.5°F
Cool
Wind Chill Graphs
40.2°F 
Wind Chill-Avg
40.1°F 4.5°C
 --- Virtual Temp: 41.6°F ---

 Temp Rate:

 24/hr Difference:

 Avg Running Temp:

 Todays High:

 Todays Low:

 Y-days High:

 Y-days Low:

 Todays WChill:

 Y-days WChill:

 Evapotranspiration:

-0.4°F/hr 

-1.7°F

40.3°F

40.7°F 12:00am

40.0°F 1:26am

50.1°F 2:09pm

40.7°F 11:53pm

34.8°F 2:08am

32.7°F 1:02am

0.000 in

115' Above Ground

 Temperature:

 6'AGL VRS 115'AGL:

 Avg Running Temp:

 Humidity:

 Todays High:

 Todays Low:

 Y-days High:

 Y-days Low:

47.0°F 

+6.8°F

46.1°F

55% 

47.0°F 12:14am

45.0°F 1:03am

52.0°F 2:11pm

44.0°F 9:40pm

Temp & Humidity Graphs

  Wind 

Wind Speed

 Calm

Gusting to

 7.0 mph

Wind from E

95°  E

Calm

 Avg speed:

 Wind Run:

 Peak Gust:

  1.0 mph 

0.0 miles

  8.0 mph 2:02am

  Almanac  

Moon age: 3 days,18 hours,23 minutes,15%

Waxing Crescent
15%
Illuminated
3 days in cycle

 Moonrise:

 Moonset:

 Sunrise:

 Sunset:

 Solar Noon:

10:34am

8:46pm

7:11am

4:40pm

11:57am

0min 44s less daylight tomorrow 

  Solar Radiation 

(Current Solar)
  No Sun Light
(Todays High)
 None@12:00am

Rain

 Rain Today:

 Rain Rate (/hr):

 Rain last hour:

 Rain Yesterday:

 This Month:

 Season Total:

5 Days Since Last Rain Day

0.00 in

0.000 in

0.00 in

0.00 in

1.05 in

9.55 in

Updated Time

Updated: 12/11/18  2:22am

(Updated  sec ago)

Humidity & Barometer

 Humidity:

 Wetbulb:

 Dew Point:

 Barometer:

80% 

37.8°F 

34.5°F 

30.205 inHg 

 Baro Trend:  Steady 
Northern Calif
Preparedness
Fire 
Level 

    UV Index  

(Current UV)
0.0  None
(Todays High) @ 12:00am
0.0   None

National Weather Service Forecast

Overnight

Overnight: Mostly Clear
Mostly Clear
Tuesday

Tuesday: Sunny
Sunny
Tuesday
Night
Tuesday Night: Partly Cloudy
Partly Cloudy
Wednesday

Wednesday: Mostly Sunny
Mostly Sunny
Wednesday
Night
Wednesday Night: Partly Cloudy
Partly Cloudy
Thursday

Thursday: Mostly Sunny
Mostly Sunny
Lo 39 °F Hi 53 °F ↓ Lo 40 °F Hi 56 °F Lo 39 °F Hi 57 °F

Foresthill Probe 2 Stats  
Foresthill Probe 2: is located on Thomas Street
at 3000 feet. The main Foresthill Weather site
is located on Melody ln at the 2860 foot elevation

Calm
38.6°F
3.7°C
Temp Rate:
-0.3°F
Calm
Gusting to
1.0 mph
(Humidity)
85%
Wind from ESE
118°  ESE
Updated: 11/12/18 - 02:18:06
 Todays High: 39.0°F 00:35
 Todays Low: 38.5°F 02:06
 Rain Today: 0.00 in
 Season Total: 9.72 in

Foresthill Wx: Monthly,Yearly, Highs and Lows 

Foresthill  
This Weather Data is coming from the main Foresthill
Weather site located on Melody ln at the 2860 foot
elevation
Not Foresthill Probe 2
Weather Data
Month
  High
Month
  Low
Year
High
Year
Low
Temp 52.0°F
12/8/18
31.7°F
12/2/18
93.9°F
8/10/18
21.9°F
2/23/18
Humidity 100%
12/1/18
54%
12/9/18
100%
1/8/18
9%
10/15/18
Heat Index 55.1°F
12/8/18
36.0°F
12/3/18
93.3°F
7/25/18
27.1°F
2/20/18
Wind Chill 52.0°F
12/8/18
19.7°F
12/3/18
93.9°F
8/10/18
9.2°F
2/23/18
Wind Gust 25 mph
12/1/18
0 mph
12/1/18
43 mph
3/1/18
0 mph
1/1/18
Barometer 30.41 in
12/9/18
29.92 in
12/5/18
30.55 in
1/27/18
29.53 in
11/29/18
ET 0.05 in
12/7/18
0.00 in
12/1/18
0.25 in
6/24/18
0.00 in
1/1/18
Dew Point 44.0°F
12/8/18
26.3°F
12/3/18
66.9°F
7/24/18
0.7°F
11/8/18
Pacific Satellite US Radar Satellite Imagery Sacramento,CA.  (click to enlarge)
NWS Weather Forecast - Summary
Updated: Monday, December 10, 2018 - 2:12pm PST
Current Interstate Highway Conditions for I-80 & US-50

[I 80: IN THE SAN FRANCISCO BAY AREA - SOLANO CO]
no traffic restrictions are reported for this area.

[I 80: IN THE NORTHERN CALIFORNIA AREA & SIERRA NEVADA]
no traffic restrictions are reported for this area.

[US 50: IN THE SACRAMENTO VALLEY & THE LAKE TAHOE BASIN]
the westbound connector to southbound sr 99 /in sacramento/ (sacramento co)   Is closed from 11:00pm each night to 5:00am each morning 7 days a week thru 12/15/18 - due to construction - a detour is available
NWS Weather Forecast: Overnight and Tuesday (Updated: Tue, 11-Dec-2018 1:47am PST)
Overnight

Overnight: Mostly Clear
Mostly Clear

Lo 39 °F
NWS forecast: Mostly clear, with a low around 39. East wind around 8 mph.
Tuesday

Tuesday: Sunny
Sunny

Hi 53 °F ↓
NWS forecast: Sunny. High near 53, with temperatures falling to around 48 in the afternoon. North wind 2 to 8 mph.
YR.NO 10 Day Weather forecast
Last update: 12/10/2018 @ 11:32
Next update: 12/11/2018 @ 00:00
Provided by: 22
      Temperature Precipitation Pressure Wind  
Today
12/11/2018
00:00 06:00 34°F   30.15 inHg Gentle breeze from east-northeast 8 mph
  06:00 12:00 34°F   30.15 inHg Light breeze from east-northeast 7 mph
  12:00 18:00 54°F   30.14 inHg Light air from southwest 2 mph
  18:00 00:00 41°F   30.19 inHg Calm from east-northeast 0 mph
    (Click to enlarge)
meteogram

    Forecast for next 9 days

      Temperature Precip Pressure Wind  
Wednesday
12/12/2018
00:00 06:00 36°F   30.22 inHg Light air from east-northeast 2 mph
  06:00 12:00 36°F   30.24 inHg Light breeze from north-northeast 4 mph
  12:00 18:00 57°F   30.19 inHg Light breeze from northeast 5 mph
  18:00 00:00 39°F   30.20 inHg Light breeze from east-northeast 7 mph
      Temperature Precip Pressure Wind  
Thursday
12/13/2018
00:00 06:00 32°F   30.26 inHg Light breeze from east-northeast 4 mph
  04:00 10:00 30°F   30.26 inHg Light air from east-northeast 3 mph
  10:00 16:00 52°F   30.28 inHg Light air from south 1 mph
  16:00 22:00 50°F   30.15 inHg Light air from north-northeast 1 mph
  22:00 04:00 39°F   30.12 inHg Light breeze from east 6 mph
      Temperature Precip Pressure Wind  
Friday
12/14/2018
04:00 10:00 41°F   30.05 inHg Light breeze from east 5 mph
  10:00 16:00 50°F 0.10 in 30.07 inHg Gentle breeze from south 8 mph
  16:00 22:00 43°F 0.56 in 30.03 inHg Gentle breeze from south-southwest 9 mph
  22:00 04:00 43°F 0.22 in 30.14 inHg Light breeze from south-southwest 5 mph
      Temperature Precip Pressure Wind  
Saturday
12/15/2018
04:00 10:00 41°F 0.09 in 30.11 inHg Light breeze from east-southeast 4 mph
  10:00 16:00 45°F   30.14 inHg Light air from east 2 mph
  16:00 22:00 48°F   30.04 inHg Light breeze from west-southwest 4 mph
  22:00 04:00 46°F   30.06 inHg Light breeze from south-southeast 6 mph
      Temperature Precip Pressure Wind  
Sunday
12/16/2018
04:00 10:00 45°F   30.02 inHg Gentle breeze from south-southeast 8 mph
  10:00 16:00 52°F 0.40 in 29.94 inHg Moderate breeze from south-southeast 14 mph
  16:00 22:00 46°F 1.01 in 29.92 inHg Gentle breeze from south-southwest 10 mph
  22:00 04:00 37°F 0.08 in 30.04 inHg Light breeze from east 7 mph
      Temperature Precip Pressure Wind  
Monday
12/17/2018
04:00 10:00 39°F 0.04 in 30.11 inHg Light air from south-southeast 3 mph
  10:00 16:00 43°F   30.22 inHg Light air from south 2 mph
  16:00 22:00 45°F   30.23 inHg Light breeze from west-southwest 4 mph
  22:00 04:00 30°F   30.31 inHg Light breeze from east-northeast 4 mph
      Temperature Precip Pressure Wind  
Tuesday
12/18/2018
04:00 10:00 34°F   30.32 inHg Light breeze from east-northeast 4 mph
  10:00 16:00 46°F   30.37 inHg Light air from south-southeast 2 mph
  16:00 22:00 46°F   30.34 inHg Light air from east 3 mph
  22:00 04:00 39°F   30.37 inHg Light air from northeast 3 mph
      Temperature Precip Pressure Wind  
Wednesday
12/19/2018
04:00 10:00 34°F   30.34 inHg Light breeze from east-northeast 5 mph
  10:00 16:00 52°F   30.35 inHg Light air from east-northeast 2 mph
  16:00 22:00 54°F   30.27 inHg Light air from west 2 mph
  22:00 04:00 37°F   30.26 inHg Light breeze from east-northeast 6 mph
How Close Are We To this Month's Temperature Record ?
Updated Tuesday, Dec 11, 2018- 2:10:01 AM

Current Temperature: 40.2°F

December's High: Temperature Record 65.8°F - Set on Tue, Dec 17, 2013 - 1:22:00 PM
We are currently 25.6°F Less than this Month's record High

December's Low: Temperature Record 20.2°F - Set on Sun, Dec 8, 2013 - 7:26:00 AM
We are currently 20°F More than this Month's record Low

Weather History For Tuesday, December 11, 2018


On this Day - In Weather History ...
Data courtesy of weatherforyou.com
powered by Cumulus v1.9.3 (1059)
Ambient Weather VWS v14.00
Top Contact Website Map Copyright © 2007 - 2018 Foresthillweather.com Never base important decisions on this or any weather information obtained from the Internet